Location: Bushey
(51.6333°N, 0.3667°W)
Time: 18:59:27
(UTC+00:00)

HJ-1C - Pass Details

Date: 03 March 2021
Orbit: 428 x 440 km, 97.1° (Epoch: 17 April)

Event Time Altitude Azimuth Distance (km) Brightness Sun altitude
Rises 18:32:42 0° 156° (SSE) 2,417 6.9 -8.1°
Reaches altitude 10° 18:34:44 10° 152° (SSE) 1,551 5.8 -8.4°
Maximum altitude 18:37:59 57° 73° (ENE) 524 3.4 -8.9°
Drops below altitude 10° 18:41:16 10° 354° (N) 1,557 6.2 -9.4°
Sets 18:43:18 0° 351° (N) 2,429 7.3 -9.8°
